Voltar ao catálogo

OPS 9342

IDSCS 20

AtivoMilitarMEO
NORAD 3285·PAYLOAD·🇺🇸 United States

Lançado Jun 13, 1968 de Cape Canaveral Space Force Station

Loading…

Próximas Passagens (próximas 24 horas)

TLE

AtualizadoSource: Space-Track

Época: Sep 14, 2026, 13:23 UTC

1 03285U 68050B   26257.55777417 -.00000103  00000-0  00000-0 0  9997
2 03285   7.4157  50.8363 0016765 156.8947 204.9282  1.07819295229130

Acompanhe OPS 9342 em tempo real com AllMySat

Download on the App Store